Location: Unspecified
(41.1850°N, 73.2650°W)
Time: 15:48:25
(UTC+00:00)

Envisat - Visible Passes

Search period start: 23 October 2021 00:00
Search period end: 02 November 2021 00:00
Orbit: 764 x 766 km, 98.2° (Epoch: 22 October)

Date Brightness Start Highest point End Pass type
(mag) Time Alt. Az. Time Alt. Az. Time Alt. Az.
23 Oct 3.1 09:58:38 10° NNE 10:03:44 80° ESE 10:08:49 10° S visible
24 Oct 4.6 09:22:08 10° NNE 09:26:47 35° E 09:31:24 10° SSE visible
25 Oct 5.9 08:46:32 10° NE 08:49:38 16° E 08:52:42 10° SE visible
25 Oct 3.0 10:24:01 10° N 10:29:02 59° WNW 10:33:59 10° SSW visible
26 Oct 3.5 09:47:09 10° NNE 09:52:12 63° E 09:57:13 10° S visible
26 Oct 6.6 22:44:36 10° WSW 22:46:07 11° W 22:47:38 10° WNW visible
27 Oct 5.0 09:10:51 10° NE 09:15:11 28° E 09:19:30 10° SSE visible
27 Oct 3.6 10:49:39 10° N 10:54:12 34° WNW 10:58:45 10° SW visible
28 Oct 6.1 08:35:56 10° ENE 08:37:58 12° E 08:40:00 10° ESE visible
28 Oct 2.9 10:12:26 10° N 10:17:31 75° WNW 10:22:35 10° SSW visible
29 Oct 4.0 09:35:43 10° NNE 09:40:39 49° E 09:45:32 10° S visible
29 Oct 6.2 22:31:39 10° SW 22:34:26 15° W 22:37:15 10° WNW visible
30 Oct 5.4 08:59:39 10° NE 09:03:34 22° E 09:07:27 10° SE visible
30 Oct 3.3 10:37:57 10° N 10:42:45 43° WNW 10:47:31 10° SW visible
31 Oct 3.0 10:00:53 10° NNE 10:06:00 86° ESE 10:11:05 10° SSW visible
01 Nov 4.4 09:24:19 10° NNE 09:29:04 38° E 09:33:46 10° SSE visible
01 Nov 6.0 22:19:15 10° SW 22:22:48 19° W 22:26:21 10° NW visible
